IRIDIUM 81

Last updated on Wed Nov 29 2017 00:19:03 GMT+0000 (Coordinated Universal Time)

1 25468U 98051B 17332.46556073 .00000081 00000-0 19845-4 0 9990 2 25468 86.4206 313.1412 0001993 83.4042 276.7383 14.38606649 6460
UTC large
Height (km)
Speed (km/s)
/
Latitude / Longitude
Inclination (degrees)
Orbital Period (minutes)
Azimuth
Elevation
Range (km)
Doppler Factor

Next 0 passes for location: London (51.5072 / 0.1276)

Sorry there are no passes over London.
IRIDIUM 81